Date String (YYYY-MM-DD hh:mm:ss) UTC,Instrument flags,Ambient pressure (hPa),Sample flow (lpm),Bypass flow (lpm),Sample temperature (°C),Ambient temperature (°C),ASC tube jacket temperature (°C),LED temperature (°C),Box temperature (°C),Sample RH (%),Span deviation,Mass concentration (μg/m³),Mass concentration (μg/m³),Mass concentration (μg/m³)
DateTimeUTC,F1_M11,P_M11,Q1_M11,Q2_M11,T1_M11,T2_M11,T3_M11,T4_M11,T5_M11,U1_M11,ZSPAN_M11,X0_M11,X2_M11,X1_M11
2022-11-02 00:00:00,,0819.9,5.01,0.00,29.7,27.0,00.0,38.6,31.3,09.7,0000.0,0016.10,0003.69,0002.30
2022-11-02 00:01:00,,0819.9,4.99,0.00,29.7,27.3,00.0,38.5,31.4,09.7,0000.0,0015.43,0003.72,0002.31
2022-11-02 00:02:00,,0819.9,5.01,0.00,29.7,27.6,00.0,38.5,31.4,09.7,0000.0,0013.82,0003.73,0002.31
2022-11-02 00:03:00,,0820.0,4.98,0.00,29.7,27.8,00.0,38.5,31.4,09.7,0000.0,0013.73,0003.67,0002.30
2022-11-02 00:04:00,,0820.0,5.02,0.00,29.7,27.9,00.0,38.5,31.4,09.7,0000.0,0013.52,0003.61,0002.30
2022-11-02 00:05:00,,0820.0,4.98,0.00,29.7,28.1,00.0,38.5,31.4,09.8,0000.0,0013.60,0003.61,0002.31
2022-11-02 00:06:00,,0820.0,5.02,0.00,29.7,28.2,00.0,38.5,31.5,09.7,0000.0,0013.74,0003.60,0002.33
2022-11-02 00:07:00,,0820.0,4.99,0.00,29.7,28.3,00.0,38.5,31.5,09.7,0000.0,0013.47,0003.60,0002.33
2022-11-02 00:08:00,,0820.0,5.00,0.00,29.7,28.3,00.0,38.5,31.5,09.8,0000.0,0013.63,0003.61,0002.34
2022-11-02 00:09:00,,0820.0,5.01,0.00,29.7,28.4,00.0,38.5,31.6,09.7,0000.0,0013.39,0003.62,0002.35
2022-11-02 00:10:00,,0820.0,5.00,0.00,29.7,28.5,00.0,38.5,31.6,09.6,0000.0,0013.33,0003.59,0002.36
2022-11-02 00:11:00,,0820.0,4.99,0.00,29.7,28.5,00.0,38.5,31.6,09.6,0000.0,0013.59,0003.58,0002.37
2022-11-02 00:12:00,,0820.0,5.00,0.00,29.7,28.5,00.0,38.5,31.6,09.6,0000.0,0013.68,0003.54,0002.36
2022-11-02 00:13:00,,0820.0,5.00,0.00,29.8,28.6,00.0,38.5,31.6,09.6,0000.0,0013.80,0003.51,0002.37
2022-11-02 00:14:00,,0820.0,5.02,0.00,29.8,28.6,00.0,38.6,31.7,09.6,0000.0,0013.95,0003.53,0002.38
2022-11-02 00:15:00,,0820.0,4.99,0.00,29.8,28.6,00.0,38.6,31.7,09.5,0000.0,0015.36,0003.53,0002.39
2022-11-02 00:16:00,,0819.9,4.99,0.00,29.8,28.6,00.0,38.6,31.7,09.5,0000.0,0016.60,0003.53,0002.39
2022-11-02 00:17:00,,0819.9,5.02,0.00,29.8,28.6,00.0,38.6,31.7,09.8,0000.0,0016.11,0003.50,0002.40
2022-11-02 00:18:00,,0819.9,4.99,0.00,29.9,28.7,00.0,38.6,31.7,09.7,0000.0,0016.74,0003.46,0002.39
2022-11-02 00:19:00,,0820.0,5.00,0.00,29.9,28.7,00.0,38.6,31.7,09.7,0000.0,0015.93,0003.45,0002.38
2022-11-02 00:20:00,,0820.0,5.00,0.00,29.9,28.7,00.0,38.6,31.7,09.7,0000.0,0015.93,0003.47,0002.39
2022-11-02 00:21:00,,0820.0,5.00,0.00,29.9,28.7,00.0,38.7,31.7,09.7,0000.0,0015.58,0003.51,0002.40
2022-11-02 00:22:00,,0820.0,5.00,0.00,29.9,28.7,00.0,38.7,31.8,09.7,0000.0,0014.54,0003.51,0002.41
2022-11-02 00:23:00,,0820.0,5.00,0.00,29.9,28.8,00.0,38.7,31.8,09.7,0000.0,0014.73,0003.55,0002.43
2022-11-02 00:24:00,,0820.0,5.00,0.00,29.9,28.8,00.0,38.7,31.8,09.7,0000.0,0014.55,0003.54,0002.42
2022-11-02 00:25:00,,0820.0,5.00,0.00,30.0,28.8,00.0,38.7,31.8,09.7,0000.0,0014.77,0003.55,0002.42
2022-11-02 00:26:00,,0820.0,5.00,0.00,30.0,28.8,00.0,38.7,31.8,09.6,0000.0,0013.13,0003.58,0002.42
2022-11-02 00:27:00,,0820.2,5.01,0.00,30.0,28.8,00.0,38.7,31.8,09.7,0000.0,0011.78,0003.57,0002.41
2022-11-02 00:28:00,,0820.1,5.00,0.00,30.0,28.8,00.0,38.8,31.9,09.6,0000.0,0011.61,0003.59,0002.39
2022-11-02 00:29:00,,0820.2,4.99,0.00,30.0,28.8,00.0,38.8,31.9,09.6,0000.0,0010.94,0003.64,0002.39
2022-11-02 00:30:00,,0820.2,5.00,0.00,30.0,28.8,00.0,38.8,31.9,09.6,0000.0,0010.64,0003.65,0002.38
2022-11-02 00:31:00,,0820.2,5.02,0.00,30.0,28.8,00.0,38.8,31.9,09.6,0000.0,0011.02,0003.62,0002.37
2022-11-02 00:32:00,,0820.2,4.99,0.00,30.0,28.8,00.0,38.8,31.9,09.6,0000.0,0010.80,0003.56,0002.34
2022-11-02 00:33:00,,0820.2,4.99,0.00,30.0,28.8,00.0,38.8,31.9,09.6,0000.0,0010.56,0003.54,0002.33
2022-11-02 00:34:00,,0820.2,5.01,0.00,30.0,28.7,00.0,38.8,31.8,09.6,0000.0,0010.72,0003.54,0002.31
2022-11-02 00:35:00,,0820.2,5.00,0.00,30.0,28.7,00.0,38.8,31.8,09.6,0000.0,0011.58,0003.60,0002.31
2022-11-02 00:36:00,,0820.2,5.00,0.00,30.0,28.7,00.0,38.8,31.8,09.6,0000.0,0010.97,0003.62,0002.31
2022-11-02 00:37:00,,0820.2,4.99,0.00,30.0,28.7,00.0,38.8,31.8,09.6,0000.0,0011.65,0003.64,0002.29
2022-11-02 00:38:00,,0820.2,5.02,0.00,30.0,27.9,00.0,38.8,31.7,09.6,0000.0,0011.93,0003.68,0002.29
2022-11-02 00:39:00,,0820.2,5.00,0.00,30.0,26.5,00.0,38.7,31.6,09.6,0000.0,0012.43,0003.68,0002.29
2022-11-02 00:40:00,,0820.2,4.98,0.00,29.9,26.2,00.0,38.7,31.4,09.5,0000.0,0012.65,0003.63,0002.28
2022-11-02 00:41:00,,0820.3,5.01,0.00,29.8,26.5,00.0,38.6,31.3,09.4,0000.0,0012.78,0003.60,0002.26
2022-11-02 00:42:00,,0820.2,4.99,0.00,29.7,26.8,00.0,38.6,31.3,09.4,0000.0,0012.17,0003.58,0002.23
2022-11-02 00:43:00,,0820.2,5.01,0.00,29.6,27.1,00.0,38.6,31.3,09.3,0000.0,0012.16,0003.55,0002.19
2022-11-02 00:44:00,,0820.2,4.99,0.00,29.6,27.4,00.0,38.5,31.3,09.1,0000.0,0012.50,0003.50,0002.15
2022-11-02 00:45:00,,0820.2,5.00,0.00,29.6,27.6,00.0,38.5,31.3,09.0,0000.0,0012.21,0003.38,0002.10
2022-11-02 00:46:00,,0820.2,5.00,0.00,29.6,27.7,00.0,38.5,31.3,09.2,0000.0,0011.61,0003.29,0002.08
2022-11-02 00:47:00,,0820.2,4.99,0.00,29.5,27.8,00.0,38.5,31.3,09.0,0000.0,0011.51,0003.22,0002.04
2022-11-02 00:48:00,,0820.2,5.01,0.00,29.5,27.9,00.0,38.5,31.3,08.8,0000.0,0010.59,0003.15,0002.00
2022-11-02 00:49:00,,0820.2,4.99,0.00,29.5,28.0,00.0,38.4,31.3,08.8,0000.0,0010.31,0002.99,0001.95
2022-11-02 00:50:00,,0820.2,5.01,0.00,29.5,28.0,00.0,38.4,31.3,09.0,0000.0,0009.56,0002.86,0001.90
2022-11-02 00:51:00,,0820.2,5.00,0.00,29.5,28.0,00.0,38.4,31.3,08.7,0000.0,0008.97,0002.75,0001.86
2022-11-02 00:52:00,,0820.2,5.00,0.00,29.5,28.0,00.0,38.4,31.3,08.4,0000.0,0008.73,0002.62,0001.83
2022-11-02 00:53:00,,0820.2,5.00,0.00,29.5,28.0,00.0,38.4,31.2,08.4,0000.0,0008.59,0002.50,0001.81
2022-11-02 00:54:00,,0820.2,5.00,0.00,29.5,28.0,00.0,38.4,31.2,08.2,0000.0,0008.24,0002.40,0001.79
2022-11-02 00:55:00,,0820.2,5.00,0.00,29.5,28.0,00.0,38.4,31.2,08.2,0000.0,0007.66,0002.35,0001.78
2022-11-02 00:56:00,,0820.2,5.00,0.00,29.5,28.0,00.0,38.4,31.2,08.3,0000.0,0006.71,0002.32,0001.76
2022-11-02 00:57:00,,0820.2,4.99,0.00,29.5,28.0,00.0,38.4,31.2,08.4,0000.0,0005.44,0002.27,0001.73
2022-11-02 00:58:00,,0820.2,5.00,0.00,29.5,28.1,00.0,38.4,31.2,08.3,0000.0,0005.53,0002.22,0001.72
2022-11-02 00:59:00,,0820.2,5.00,0.00,29.5,28.1,00.0,38.4,31.2,08.3,0000.0,0005.53,0002.16,0001.72
